Location: Grandview
(34.8900°N, 117.1058°W)
Time: 23:11:59
(UTC-07:00)

Tiangong 1 - Pass Details

Date: 15 October 2017
Orbit: 292 x 319 km, 42.8° (Epoch: 23 October)

Event Time Altitude Azimuth Distance (km) Brightness Sun altitude
Rises 18:43:03 0° 302° (WNW) 2,045 5.7 -6.9°
Reaches altitude 10° 18:45:09 10° 313° (NW) 1,209 4.2 -7.3°
Maximum altitude 18:47:39 32° 20° (NNE) 557 1.7 -7.9°
Enters shadow 18:49:49 12° 84° (E) 1,082 2.6 -8.3°
